Location: Jackson Park
(37.2862°N, 79.9123°W)
Time: 11:08:46
(UTC+00:00)

Vanguard 2 Rocket - Pass Details

Date: 16 May 2026
Orbit: 553 x 3286 km, 32.9° (Epoch: 11 June)

Event Time Altitude Azimuth Distance (km) Brightness Sun altitude
Rises 20:55:16 0° 282° (WNW) 6,660 12.1 39.3°
Reaches altitude 10° 20:59:29 10° 278° (W) 5,872 12.2 38.4°
Maximum altitude 21:17:58 55° 208° (SSW) 3,707 10.8 34.7°
Drops below altitude 10° 21:35:15 10° 137° (SE) 5,502 10.6 31.3°
Sets 21:39:04 0° 132° (SE) 6,232 10.8 30.6°
